This demonstration page uses our WeatherBlox Daily Observations layout. Learn more.

Left ArrowRight Arrow

Hourly Observations for March 31, 2021

Temp ( °F °C ) Dew Point ( °F °C ) Humidity (%) Winds ( mph kmh ) Pressure ( in mb ) Visibility ( mi km ) Precip ( " mm )
12:54 am 00:54 Clear 26 -3.3 16 -8.9 66 66 NNW 7 11 30.30 1026 10 16 0.00 0.00
1:54 am 01:54 Clear 32 0 15 -9.4 50 50 NNW 7 11 30.32 1027 10 16 0.00 0.00
2:54 am 02:54 Clear 29 -1.7 14 -10 54 54 N 6 9 30.35 1028 10 16 0.00 0.00
3:54 am 03:54 Clear 27 -2.8 11 -11.7 51 51 NW 5 7 30.37 1028 10 16 0.00 0.00
4:54 am 04:54 Clear 31 -0.6 10 -12.2 42 42 NNW 7 11 30.39 1029 10 16 0.00 0.00
5:54 am 05:54 Clear 30 -1.1 8 -13.3 39 39 NW 6 9 30.40 1030 10 16 0.00 0.00
6:54 am 06:54 Clear 27 -2.8 7 -13.9 43 43 WNW 3 6 30.43 1031 10 16 0.00 0.00
7:54 am 07:54 Sunny 28 -2.2 10 -12.2 47 47 WSW 5 7 30.46 1032 10 16 0.00 0.00
8:54 am 08:54 Sunny 35 1.7 8 -13.3 32 32 NW 9 15 30.48 1032 10 16 0.00 0.00
9:54 am 09:54 Sunny 39 3.9 5 -15 24 24 NW 12 19 30.48 1032 10 16 0.00 0.00
10:54 am 10:54 Sunny 42 5.6 8 -13.3 24 24 NW 17 28 30.49 1033 10 16 0.00 0.00
11:54 am 11:54 Sunny 44 6.7 7 -13.9 22 22 NW 22 35 30.50 1033 10 16 0.00 0.00
12:54 pm 12:54 Sunny 47 8.3 8 -13.3 20 20 NW 20 31 30.49 1033 10 16 0.00 0.00
1:54 pm 13:54 Sunny 48 8.9 8 -13.3 19 19 NNW 13 20 30.47 1032 10 16 0.00 0.00
2:54 pm 14:54 Partly Cloudy 51 10.6 8 -13.3 17 17 WNW 20 31 30.45 1031 10 16 0.00 0.00
3:54 pm 15:54 Mostly Cloudy 51 10.6 10 -12.2 19 19 NW 20 31 30.45 1031 10 16 0.00 0.00
4:54 pm 16:54 Mostly Cloudy 50 10 10 -12.2 20 20 NNW 18 30 30.45 1031 10 16 0.00 0.00
5:54 pm 17:54 Mostly Sunny 50 10 11 -11.7 21 21 NNW 18 30 30.46 1031 10 16 0.00 0.00
6:54 pm 18:54 Sunny 48 8.9 12 -11.1 23 23 NNW 17 28 30.47 1032 10 16 0.00 0.00
7:54 pm 19:54 Clear 45 7.2 13 -10.6 27 27 NNW 9 15 30.49 1033 10 16 0.00 0.00
8:54 pm 20:54 Clear 34 1.1 13 -10.6 42 42 N 8 13 30.52 1034 10 16 0.00 0.00
9:54 pm 21:54 Clear 36 2.2 14 -10 40 40 N 6 9 30.54 1034 10 16 0.00 0.00
10:54 pm 22:54 Clear 29 -1.7 14 -10 54 54 N 6 9 30.55 1035 10 16 0.00 0.00
11:54 pm 23:54 Clear 29 -1.7 16 -8.9 58 58 Calm 30.57 1035 10 16 0.00 0.00

Powered by AerisWeather